User: anonymous
Location: Vancouver
(49.2500°N, 123.1330°W)
Time: 03:17:10
(UTC-07:00)
Language:

Iridium 35 - Orbit

View from above orbital plane
View from above orbital plane
View from above satellite
View from above satellite

Ground track
Ground track

The orbit data is extracted from the following two-line orbital elements,

1 24966U 97056B   14273.35245480  .00000601  00000-0  20740-3 0   110
2 24966 086.4011 012.8617 0002271 110.7939 249.3500 14.34220545890512
Epoch (UTC): 30 September 2014 08:27:32
Eccentricity: 0.0002271
inclination: 86.4011°
perigee height: 776 km
apogee height: 779 km
right ascension of ascending node: 12.8617°
argument of perigee: 110.7939°
revolutions per day: 14.34220545
mean anomaly at epoch: 249.3500°
orbit number at epoch: 89051

The dashed part of the orbit path shows where the satellite is in the earth's shadow,  

DLR